This demonstration page uses our WeatherBlox Daily Observations layout. Learn more.

Left ArrowRight Arrow

39.51506, -84.39828

Hourly Observations for June 12, 2020

Temp ( °F °C ) Dew Point ( °F °C ) Humidity (%) Winds ( mph kmh ) Pressure ( in mb ) Visibility ( mi km ) Precip ( " mm )
12:15 am 00:15 Clear 58 14.6 55 12.8 89 89 Calm 30.22 1023 10 16.0934 0 0
12:35 am 00:35 Clear 57 13.9 54 12.4 91 91 Calm 30.22 1023 10 16.0934 0 0
12:55 am 00:55 Clear 58 14.2 55 12.5 90 90 Calm 30.23 1024 10 16.0934 0 0
1:15 am 01:15 Clear 56 13.6 54 12 90 90 Calm 30.23 1024 10 16.0934 0 0
1:35 am 01:35 Clear 57 13.7 54 12.1 90 90 Calm 30.23 1024 10 16.0934 0 0
1:55 am 01:55 Partly Cloudy 57 13.7 55 12.5 93 93 Calm 30.23 1024 10 16.0934 0 0
2:15 am 02:15 Partly Cloudy 57 13.9 54 12.4 91 91 Calm 30.23 1024 10 16.0934 0 0
2:35 am 02:35 Partly Cloudy 56 13.4 55 12.5 94 94 Calm 30.23 1024 10 16.0934 0 0
2:55 am 02:55 Partly Cloudy 55 12.9 54 12.2 96 96 Calm 30.23 1024 10 16.0934 0 0
3:15 am 03:15 Partly Cloudy 55 13 54 12 94 94 Calm 30.23 1024 10 16.0934 0 0
3:35 am 03:35 Clear 56 13.4 53 11.9 91 91 Calm 30.23 1024 10 16.0934 0 0
3:55 am 03:55 Clear 54 12.4 53 11.5 94 94 Calm 30.23 1024 10 16.0934 0 0
4:15 am 04:15 Clear 54 12.2 53 11.5 96 96 Calm 30.23 1024 10 16.0934 0 0
4:35 am 04:35 Clear 54 12.4 53 11.8 96 96 Calm 30.23 1024 10 16.0934 0 0
4:55 am 04:55 Clear 54 12.3 53 11.8 97 97 Calm 30.23 1024 10 16.0934 0 0
5:15 am 05:15 Clear 53 11.8 53 11.6 99 99 Calm 30.24 1024 10 16.0934 0 0
5:35 am 05:35 Clear 52 11.3 52 11.1 99 99 Calm 30.25 1024 10 16.0934 0 0
5:55 am 05:55 Clear 54 12 54 12 100 100 Calm 30.24 1024 10 16.0934 0 0
6:15 am 06:15 Sunny 53 11.9 53 11.8 99 99 Calm 30.24 1024 10 16.0934 0 0
6:35 am 06:35 Sunny 53 11.9 53 11.8 99 99 Calm 30.25 1025 10 16.0934 0 0
6:55 am 06:55 Sunny 54 12.3 54 12.2 99 99 Calm 30.26 1025 10 16.0934 0 0
7:15 am 07:15 Sunny 56 13.4 56 13.3 99 99 Calm 30.26 1025 10 16.0934 0 0
7:35 am 07:35 Sunny N/A N/A N/A Calm N/A 7 11.26538 0 0
7:55 am 07:55 Sunny 59 15 57 14 94 94 Calm 30.26 1025 10 16.0934 0 0
8:15 am 08:15 Sunny 63 17.2 58 14.6 85 85 Calm 30.26 1025 10 16.0934 0 0
8:35 am 08:35 Sunny 65 18.5 60 15.6 83 83 Calm 30.26 1025 10 16.0934 0 0
8:55 am 08:55 Sunny 68 20 59 15 73 73 Calm 30.25 1025 10 16.0934 0 0
9:15 am 09:15 Sunny 70 21 59 14.8 68 68 Calm 30.25 1024 10 16.0934 0 0
9:35 am 09:35 Sunny N/A N/A N/A N 7 11 N/A 10 16.0934 0 0
9:55 am 09:55 Sunny N/A N/A N/A N 6 9 N/A 10 16.0934 0 0
10:15 am 10:15 Sunny N/A N/A N/A NNE 7 11 N/A 10 16.0934 0 0
10:35 am 10:35 Sunny N/A N/A N/A N 7 11 N/A 10 16.0934 0 0
10:55 am 10:55 Sunny N/A N/A N/A NNE 9 15 N/A 10 16.0934 0 0
11:15 am 11:15 Sunny N/A N/A N/A N 9 15 N/A 10 16.0934 0 0
11:35 am 11:35 Sunny N/A N/A N/A N 5 7 N/A 10 16.0934 0 0
11:55 am 11:55 Sunny N/A N/A N/A NNE 8 13 N/A 10 16.0934 0 0
12:15 pm 12:15 Sunny N/A N/A N/A NNW 12 19 N/A 10 16.0934 0 0
12:35 pm 12:35 Sunny N/A N/A N/A NNE 6 9 N/A 10 16.0934 0 0
12:55 pm 12:55 Sunny N/A N/A N/A NNE 8 13 N/A 10 16.0934 0 0
1:15 pm 13:15 Sunny N/A N/A N/A N 8 13 N/A 10 16.0934 0 0
1:35 pm 13:35 Sunny N/A N/A N/A N 10 17 N/A 10 16.0934 0 0
1:55 pm 13:55 Sunny N/A N/A N/A N 13 20 N/A 10 16.0934 0 0
2:15 pm 14:15 Sunny N/A N/A N/A NNE 8 13 N/A 10 16.0934 0 0
2:35 pm 14:35 Sunny N/A N/A N/A NNE 8 13 N/A 10 16.0934 0 0
2:55 pm 14:55 Sunny N/A N/A N/A NNW 3 6 N/A 10 16.0934 0 0
3:15 pm 15:15 Sunny N/A N/A N/A NE 7 11 N/A 10 16.0934 0 0
3:35 pm 15:35 Sunny N/A N/A N/A ENE 6 9 N/A 10 16.0934 0 0
3:55 pm 15:55 Sunny N/A N/A N/A N 9 15 N/A 10 16.0934 0 0
4:15 pm 16:15 Sunny N/A N/A N/A NNE 7 11 N/A 10 16.0934 0 0
4:35 pm 16:35 Sunny N/A N/A N/A NE 6 9 N/A 10 16.0934 0 0
4:55 pm 16:55 Sunny N/A N/A N/A NE 7 11 N/A 10 16.0934 0 0
5:15 pm 17:15 Sunny N/A N/A N/A NNW 6 9 N/A 10 16.0934 0 0
5:35 pm 17:35 Sunny N/A N/A N/A NNE 6 9 N/A 10 16.0934 0 0
5:55 pm 17:55 Partly Cloudy N/A N/A N/A ENE 7 11 N/A 10 16.0934 0 0
6:15 pm 18:15 Sunny N/A N/A N/A NE 6 9 N/A 10 16.0934 0 0
6:35 pm 18:35 Hazy N/A N/A N/A NE 8 13 N/A 7 11.26538 0 0
6:55 pm 18:55 Sunny N/A N/A N/A NE 7 11 N/A 10 16.0934 0 0
7:15 pm 19:15 Sunny N/A N/A N/A E 3 6 N/A 10 16.0934 0 0
7:35 pm 19:35 Partly Cloudy N/A N/A N/A ENE 3 6 N/A 10 16.0934 0 0
7:55 pm 19:55 Partly Cloudy N/A N/A N/A ENE 3 6 N/A 10 16.0934 0 0
8:15 pm 20:15 Sunny N/A N/A N/A Calm N/A 10 16.0934 0 0
8:35 pm 20:35 Sunny N/A N/A N/A Calm N/A 10 16.0934 0 0
8:55 pm 20:55 Sunny N/A N/A N/A Calm N/A 10 16.0934 0 0
9:15 pm 21:15 Clear N/A N/A N/A Calm N/A 10 16.0934 0 0
9:35 pm 21:35 Clear N/A N/A N/A Calm N/A 10 16.0934 0 0
9:55 pm 21:55 Clear N/A N/A N/A Calm N/A 10 16.0934 0 0
10:15 pm 22:15 Clear N/A N/A N/A Calm N/A 10 16.0934 0 0
10:35 pm 22:35 Clear N/A N/A N/A Calm N/A 10 16.0934 0 0
10:55 pm 22:55 Clear N/A N/A N/A Calm N/A 10 16.0934 0 0
11:15 pm 23:15 Partly Cloudy N/A N/A N/A Calm N/A 10 16.0934 0 0
11:35 pm 23:35 Clear 61 16 55 13 83 83 Calm 30.18 1022 10 16.0934 0 0
11:55 pm 23:55 Clear N/A N/A N/A Calm N/A 10 16.0934 0 0

Powered by AerisWeather